Regional Weather Roundup
Issued by NWS Raleigh/Durham, NC

Home | Current Version | Previous Version | Text Only | Print | Product List | Glossary On
Versions: 1 2 3 4 5 6 7 8 9 10 11 12 13 14 15 16 17 18 19 20 21 22 23 24 25 26 27 28 29 30 31 32 33 34 35 36 37 38 39 40 41 42 43 44 45 46 47 48 49 50
000
ASUS42 KRAH 101110
RWRRAH
NORTH CAROLINA WEATHER ROUNDUP
NATIONAL WEATHER SERVICE RALEIGH NC
700 AM EDT THU JUL 10 2014

NOTE: "FAIR" INDICATES FEW OR NO CLOUDS BELOW 12,000 FEET WITH NO
SIGNIFICANT WEATHER AND/OR OBSTRUCTIONS TO VISIBILITY.

NCZ001-053-055-056-065-067-101200-
WESTERN NORTH CAROLINA

CITY           SKY/WX    TMP DP  RH WIND       PRES   REMARKS
ASHEVILLE      CLOUDY    65  65 100 N7        30.13R FOG
JEFFERSON      CLOUDY    64  60  87 CALM      30.16R
MORGANTON      CLOUDY    67  67 100 CALM      30.12R FOG
HICKORY        CLOUDY    68  66  93 CALM      30.07R
RUTHERFORDTON  CLOUDY    67  67  99 S6        30.08R
MOUNT AIRY     CLOUDY    69  66  92 CALM      30.07R FOG
BOONE          LGT RAIN  65  59  81 W7        30.17R
$$

NCZ021-022-025-041-071-084-088-101200-
CENTRAL NORTH CAROLINA

CITY           SKY/WX    TMP DP  RH WIND       PRES   REMARKS
CHARLOTTE      CLOUDY    71  68  90 CALM      30.06R
GREENSBORO     CLOUDY    71  69  93 SW6       30.06R
WINSTON-SALEM  CLOUDY    72  67  84 CALM      30.08R
RALEIGH-DURHAM CLOUDY    74  67  78 CALM      30.04R
FORT BRAGG     MOCLDY    77  73  86 S5        30.04R
FAYETTEVILLE   MOCLDY    77  71  82 S6        30.04R
BURLINGTON     CLOUDY    70  67  90 CALM      30.04R
LAURINBURG     MOCLDY    75  73  93 S3        30.05R FOG
$$

NCZ011-015-027-028-043-044-047-080-103-101200-
NORTHEASTERN NORTH CAROLINA

CITY           SKY/WX    TMP DP  RH WIND       PRES   REMARKS
ROCKY MT-WILSO MOCLDY    76  73  91 S6        30.04R
GREENVILLE     CLOUDY    73  72  94 S7        30.08R
WASHINGTON     MOSUNNY   78  73  83 SW7       30.07R
ELIZABETH CITY RAIN      73  72  94 SW13      30.06R FOG
MANTEO           N/A     79  75  87 SW14      30.06R
CAPE HATTERAS  MOSUNNY   81  77  88 SW10      30.08R
$$

NCZ078-087-090-091-093-098-101-101200-
SOUTHEASTERN NORTH CAROLINA

CITY           SKY/WX    TMP DP  RH WIND       PRES   REMARKS
LUMBERTON      PTCLDY    74  73  97 S3        30.04R FOG
GOLDSBORO      LGT RAIN  72  72 100 S2        30.06R FOG
KINSTON        MOCLDY    72  70  94 CALM      30.07S FOG
KENANSVILLE    MOCLDY    75  73  94 CALM      30.08R FOG
NEW BERN       MOCLDY    79  75  87 SW3       30.08R
CHERRY POINT   PTCLDY    79  74  84 SW6       30.08R
BEAUFORT       PTSUNNY   81  76  84 SW13      30.08R
JACKSONVILLE   PTCLDY    77  75  93 S5        30.06R
WILMINGTON     PTCLDY    80  75  84 S5        30.05S
$$




USA.gov is the U.S. government's official web portal to all federal, state and local government web resources and services.